Regional Weather Roundup
Issued by NWS Bismarck, ND

Home | Current Version | Previous Version | Text Only | Print | Product List | Glossary On
Versions: 1 2 3 4 5 6 7 8 9 10 11 12 13 14 15 16 17 18 19 20 21 22 23 24 25 26 27 28 29 30 31 32 33 34 35 36 37 38 39 40 41 42 43 44 45 46 47 48 49 50
000
ASUS43 KBIS 232310
RWRBIS

NWR BROADCAST TEXT
NATIONAL WEATHER SERVICE BISMARCK ND
600 PM CDT SAT MAY 23 2015

NOTE: "FAIR" INDICATES FEW OR NO CLOUDS BELOW 12,000 FEET WITH NO
SIGNIFICANT WEATHER AND/OR OBSTRUCTIONS TO VISIBILITY.


CITY           SKY/WX    TMP DP  RH WIND       PRES   REMARKS
WILLISTON      PTSUNNY   72  36  26 SE13      30.08F
MINOT          MOSUNNY   74  35  24 VRB5      30.07F
MINOT AFB      MOSUNNY   77  40  26 S8        30.06S
BISMARCK       CLOUDY    63  48  58 SE8       30.11S
DICKINSON      CLOUDY    60  45  57 E12       30.08F
GARRISON         N/A     71  42  35 SE15      30.08F
HETTINGER ARPT CLOUDY    58  46  64 E13       30.09F
JAMESTOWN      MOSUNNY   67  47  48 S13       30.10F
BEACH          LGT RAIN  55  52  88 SE9       30.11S
CARRINGTON     FAIR      70  45  40 SE13      30.11F
CROSBY         FAIR      75  34  22 SE9       30.09F
HARVEY         FAIR      72  41  33 SE12G17   30.09S
HAZEN          FAIR      66  45  45 SE15      30.10S
LINTON         CLOUDY    59  50  72 SE14      30.10F
MANDAN         CLOUDY    63  48  59 E8        30.11F
OAKES            N/A     64  50  59 SE7       30.11F
STANLEY        FAIR      70  39  32 CALM      30.10F
WATFORD CITY   FAIR      70  39  32 SE17G24   30.07F
$$

CITY           SKY/WX    TMP DP  RH WIND       PRES   REMARKS
GRAND FORKS    SUNNY     76  43  30 S8        30.08F
GRAND FORKS AF SUNNY     75  42  30 SW12      30.09F
DEVILS LAKE    MOSUNNY   73  41  31 S9        30.08F
FARGO          MOSUNNY   71  45  39 S14G21    30.12F
CANDO          FAIR      75  32  20 S8        30.08F
CAVALIER       FAIR      81  30  16 SE5       30.06S
GRAFTON        FAIR      77  43  29 S15       30.07S
LANGDON        MOCLDY    79  37  22 S10G18    30.07F
ROLLA            N/A     75  32  20 SW7       30.08F
WALHALLA         N/A     79  36  21 SE9       30.05F
$$

CITY           SKY/WX    TMP DP  RH WIND       PRES   REMARKS
ABERDEEN       CLOUDY    67  48  50 SE7       30.10F
MOBRIDGE       CLOUDY    61  52  72 SE14      30.07F
BUFFALO          N/A     57  47  69 SE10      30.00S
RAPID CITY     CLOUDY    58  50  75 E14       30.02S
GLASGOW        PTSUNNY   74  37  26 SE21      30.06S
SIDNEY         CLOUDY    70  41  35 E16       30.08S
WOLF POINT     PTSUNNY   72  39  30 E16G25    30.07S
GLENDIVE       CLOUDY    63  43  48 SE15      30.09S
MILES CITY     LGT RAIN  54  53  97 SE8       30.07R
BAKER          LGT RAIN  52  50  93 E6        30.10S
$$

CITY           SKY/WX    TMP DP  RH WIND       PRES   REMARKS
BILLINGS       LGT RAIN  61  43  51 E8        30.01S
GREAT FALLS    CLOUDY    53  49  86 SW7       30.09F
REGINA         PTSUNNY   77  32  19 N5        30.08F
ESTEVAN        PTSUNNY   75  37  25 E3        30.09F
$$




USA.gov is the U.S. government's official web portal to all federal, state and local government web resources and services.